TGL971C EDDF-LFPG

Flight info

Callsign TGL971C
Flight time 0h 49m
Altitude 24000
Route SOBRA2L/18 SOBRA Y180 DIK UN857 TOLVU/N0375F230 DCT RAPOR DCT VEDUS
Aircraft A320/M-SDE3FGHIRWY/LB1

Departure

Time 2026-05-06 22:06
Airport Frankfurt Main Airport (EDDF)

Arrival

Time 2026-05-06 22:56
Airport Charles de Gaulle International Airport (LFPG)
Time Latitude Longitude Altitude Speed Heading
2026-05-06 21:28 50.04849 8.58902 360 ft 0 kts 339°
2026-05-06 21:50 50.04848 8.58902 339 ft 1 kts 339°
2026-05-06 21:50 50.04828 8.58914 371 ft 3 kts 342°
2026-05-06 21:51 50.04806 8.58925 368 ft 2 kts 340°
2026-05-06 21:51 50.04787 8.58936 370 ft 3 kts 340°
2026-05-06 21:51 50.04771 8.58945 367 ft 0 kts 340°
2026-05-06 21:54 50.04778 8.58936 367 ft 3 kts 316°
2026-05-06 21:54 50.04772 8.58904 373 ft 4 kts 227°
2026-05-06 21:54 50.04745 8.58839 368 ft 10 kts 248°
2026-05-06 21:54 50.04715 8.58713 372 ft 15 kts 251°
2026-05-06 21:55 50.04670 8.58555 367 ft 16 kts 248°
2026-05-06 21:55 50.04630 8.58390 368 ft 16 kts 251°
2026-05-06 21:55 50.04590 8.58222 368 ft 17 kts 250°
2026-05-06 21:55 50.04552 8.58051 370 ft 17 kts 249°
2026-05-06 21:56 50.04509 8.57879 369 ft 17 kts 249°
2026-05-06 21:56 50.04468 8.57704 373 ft 17 kts 250°
2026-05-06 21:56 50.04426 8.57528 369 ft 17 kts 249°
2026-05-06 21:56 50.04383 8.57350 371 ft 18 kts 250°
2026-05-06 21:57 50.04341 8.57171 369 ft 18 kts 250°
2026-05-06 21:57 50.04297 8.56991 373 ft 18 kts 250°
2026-05-06 21:57 50.04254 8.56810 373 ft 18 kts 250°
2026-05-06 21:57 50.04209 8.56625 370 ft 18 kts 250°
2026-05-06 21:58 50.04164 8.56435 368 ft 19 kts 250°
2026-05-06 21:58 50.04118 8.56243 367 ft 19 kts 249°
2026-05-06 21:58 50.04072 8.56050 366 ft 19 kts 249°
2026-05-06 21:58 50.04026 8.55856 366 ft 19 kts 250°
2026-05-06 21:59 50.03980 8.55662 369 ft 19 kts 249°
2026-05-06 21:59 50.03934 8.55469 371 ft 19 kts 249°
2026-05-06 21:59 50.03887 8.55277 367 ft 19 kts 247°
2026-05-06 21:59 50.03841 8.55083 365 ft 19 kts 249°
2026-05-06 22:00 50.03796 8.54891 364 ft 19 kts 250°
2026-05-06 22:00 50.03749 8.54696 371 ft 20 kts 250°
2026-05-06 22:00 50.03699 8.54489 366 ft 21 kts 249°
2026-05-06 22:00 50.03657 8.54311 367 ft 18 kts 249°
2026-05-06 22:01 50.03613 8.54119 367 ft 19 kts 251°
2026-05-06 22:01 50.03562 8.53918 369 ft 21 kts 249°
2026-05-06 22:01 50.03511 8.53701 369 ft 22 kts 250°
2026-05-06 22:01 50.03469 8.53526 370 ft 18 kts 249°
2026-05-06 22:02 50.03425 8.53339 365 ft 19 kts 249°
2026-05-06 22:02 50.03378 8.53143 368 ft 17 kts 249°
2026-05-06 22:02 50.03336 8.52967 367 ft 16 kts 249°
2026-05-06 22:02 50.03299 8.52813 369 ft 14 kts 249°
2026-05-06 22:03 50.03283 8.52746 369 ft 0 kts 249°
2026-05-06 22:04 50.03280 8.52735 368 ft 2 kts 249°
2026-05-06 22:05 50.03270 8.52697 369 ft 6 kts 248°
2026-05-06 22:05 50.03248 8.52623 368 ft 9 kts 232°
2026-05-06 22:05 50.03215 8.52597 366 ft 0 kts 186°
2026-05-06 22:05 50.03198 8.52596 366 ft 17 kts 181°
2026-05-06 22:06 50.02794 8.52599 372 ft 94 kts 179°
2026-05-06 22:06 50.01943 8.52608 368 ft 149 kts 180°
2026-05-06 22:06 50.00800 8.52637 683 ft 167 kts 184°
2026-05-06 22:06 49.99649 8.52638 1418 ft 166 kts 182°
2026-05-06 22:07 49.98479 8.52693 2010 ft 175 kts 181°
2026-05-06 22:07 49.97189 8.52780 2340 ft 197 kts 180°
2026-05-06 22:07 49.95736 8.52885 2620 ft 220 kts 179°
2026-05-06 22:07 49.94171 8.52999 3114 ft 234 kts 179°
2026-05-06 22:08 49.92501 8.53121 3782 ft 240 kts 179°
2026-05-06 22:08 49.90849 8.53242 4197 ft 237 kts 180°
2026-05-06 22:08 49.89198 8.53361 5041 ft 237 kts 180°
2026-05-06 22:08 49.87556 8.53368 5978 ft 235 kts 191°
2026-05-06 22:09 49.85955 8.52749 6605 ft 247 kts 203°
2026-05-06 22:09 49.84285 8.51800 7179 ft 261 kts 203°
2026-05-06 22:09 49.82687 8.50447 7967 ft 264 kts 223°
2026-05-06 22:09 49.81588 8.48176 8780 ft 268 kts 248°
2026-05-06 22:10 49.81238 8.45342 9610 ft 273 kts 272°
2026-05-06 22:10 49.81549 8.42397 10230 ft 286 kts 280°
2026-05-06 22:10 49.81946 8.39251 10505 ft 310 kts 280°
2026-05-06 22:10 49.82370 8.35894 11019 ft 322 kts 280°
2026-05-06 22:11 49.82800 8.32461 11728 ft 328 kts 280°
2026-05-06 22:11 49.83235 8.28961 12455 ft 333 kts 280°
2026-05-06 22:11 49.83671 8.25410 12809 ft 337 kts 280°
2026-05-06 22:11 49.84106 8.21836 13099 ft 340 kts 280°
2026-05-06 22:12 49.84544 8.18224 13825 ft 343 kts 280°
2026-05-06 22:12 49.84987 8.14577 14522 ft 345 kts 280°
2026-05-06 22:12 49.85432 8.10902 15206 ft 348 kts 280°
2026-05-06 22:12 49.85882 8.07190 15847 ft 352 kts 280°
2026-05-06 22:13 49.86334 8.03432 16466 ft 357 kts 280°
2026-05-06 22:13 49.86788 7.99634 17126 ft 360 kts 281°
2026-05-06 22:13 49.87246 7.95792 17725 ft 365 kts 281°
2026-05-06 22:13 49.87710 7.91890 18304 ft 370 kts 281°
2026-05-06 22:14 49.88178 7.87952 18829 ft 374 kts 281°
2026-05-06 22:14 49.88653 7.83970 19346 ft 378 kts 281°
2026-05-06 22:14 49.89132 7.79941 19878 ft 381 kts 280°
2026-05-06 22:14 49.89611 7.75875 20403 ft 385 kts 280°
2026-05-06 22:15 49.90091 7.71773 20938 ft 388 kts 280°
2026-05-06 22:15 49.90573 7.67661 21561 ft 388 kts 281°
2026-05-06 22:15 49.91056 7.63530 22111 ft 390 kts 281°
2026-05-06 22:15 49.91541 7.59377 22636 ft 393 kts 281°
2026-05-06 22:16 49.92026 7.55186 23118 ft 396 kts 281°
2026-05-06 22:16 49.92512 7.50959 23578 ft 400 kts 281°
2026-05-06 22:16 49.92999 7.46699 23854 ft 402 kts 280°
2026-05-06 22:16 49.93486 7.42454 23916 ft 394 kts 281°
2026-05-06 22:17 49.93963 7.38305 23920 ft 390 kts 280°
2026-05-06 22:17 49.94438 7.34163 23921 ft 388 kts 281°
2026-05-06 22:17 49.94909 7.30041 23919 ft 388 kts 281°
2026-05-06 22:17 49.95376 7.25926 23922 ft 386 kts 279°
2026-05-06 22:18 49.95837 7.21838 23921 ft 383 kts 279°
2026-05-06 22:18 49.96294 7.17762 23923 ft 384 kts 279°
2026-05-06 22:18 49.96749 7.13676 23919 ft 383 kts 279°
2026-05-06 22:18 49.97200 7.09604 23919 ft 383 kts 279°
2026-05-06 22:19 49.97654 7.05528 23916 ft 383 kts 279°
2026-05-06 22:19 49.98108 7.01451 23922 ft 382 kts 279°
2026-05-06 22:19 49.98559 6.97384 23904 ft 382 kts 279°
2026-05-06 22:19 49.99010 6.93313 23900 ft 382 kts 279°
2026-05-06 22:20 49.99274 6.89217 23900 ft 381 kts 270°
2026-05-06 22:20 49.99174 6.85101 23899 ft 381 kts 267°
2026-05-06 22:20 49.99048 6.80985 23903 ft 381 kts 267°
2026-05-06 22:20 49.98925 6.76865 23901 ft 382 kts 267°
2026-05-06 22:21 49.98801 6.72746 23895 ft 382 kts 267°
2026-05-06 22:21 49.98675 6.68626 23894 ft 382 kts 267°
2026-05-06 22:21 49.98547 6.64501 23895 ft 382 kts 267°
2026-05-06 22:21 49.98419 6.60433 23895 ft 382 kts 266°
2026-05-06 22:22 49.98068 6.56348 23894 ft 382 kts 256°
2026-05-06 22:22 49.97250 6.52430 23890 ft 382 kts 247°
2026-05-06 22:22 49.96187 6.48651 23893 ft 382 kts 246°
2026-05-06 22:22 49.95125 6.44875 23894 ft 382 kts 246°
2026-05-06 22:23 49.94067 6.41096 23890 ft 382 kts 246°
2026-05-06 22:23 49.93006 6.37309 23891 ft 382 kts 246°
2026-05-06 22:23 49.91944 6.33533 23919 ft 382 kts 246°
2026-05-06 22:23 49.90883 6.29764 23925 ft 381 kts 246°
2026-05-06 22:24 49.89814 6.25998 23929 ft 381 kts 246°
2026-05-06 22:24 49.88723 6.22265 23929 ft 380 kts 246°
2026-05-06 22:24 49.87652 6.18522 23928 ft 380 kts 246°
2026-05-06 22:24 49.86596 6.14770 23935 ft 380 kts 245°
2026-05-06 22:25 49.85770 6.12325 23936 ft 380 kts 239°
2026-05-06 22:25 49.84283 6.08941 23933 ft 380 kts 235°
2026-05-06 22:25 49.82757 6.05600 23932 ft 380 kts 235°
2026-05-06 22:25 49.81229 6.02274 23925 ft 380 kts 235°
2026-05-06 22:26 49.79695 5.98946 23921 ft 380 kts 234°
2026-05-06 22:26 49.78156 5.95618 23917 ft 380 kts 234°
2026-05-06 22:26 49.76615 5.92289 23916 ft 380 kts 234°
2026-05-06 22:26 49.75085 5.88957 23920 ft 380 kts 237°
2026-05-06 22:27 49.73815 5.85370 23930 ft 380 kts 247°
2026-05-06 22:27 49.72903 5.81538 23933 ft 380 kts 251°
2026-05-06 22:27 49.72024 5.77689 23943 ft 380 kts 250°
2026-05-06 22:27 49.71137 5.73848 23947 ft 379 kts 250°
2026-05-06 22:28 49.70245 5.70017 23948 ft 379 kts 250°
2026-05-06 22:28 49.69362 5.66235 23949 ft 379 kts 250°
2026-05-06 22:28 49.68458 5.62359 23950 ft 379 kts 250°
2026-05-06 22:28 49.67563 5.58532 23957 ft 379 kts 250°
2026-05-06 22:29 49.66680 5.54763 23951 ft 378 kts 250°
2026-05-06 22:29 49.65784 5.50949 23951 ft 378 kts 250°
2026-05-06 22:29 49.64885 5.47129 23952 ft 378 kts 250°
2026-05-06 22:29 49.63974 5.43267 23945 ft 378 kts 250°
2026-05-06 22:30 49.63073 5.39458 23959 ft 378 kts 250°
2026-05-06 22:30 49.62189 5.35703 23948 ft 378 kts 251°
2026-05-06 22:30 49.61322 5.31817 23952 ft 377 kts 252°
2026-05-06 22:30 49.60506 5.27977 23955 ft 377 kts 252°
2026-05-06 22:31 49.59726 5.24174 23956 ft 377 kts 255°
2026-05-06 22:31 49.59253 5.20214 23954 ft 377 kts 265°
2026-05-06 22:31 49.59207 5.16184 23953 ft 376 kts 271°
2026-05-06 22:31 49.59255 5.12147 23952 ft 376 kts 270°
2026-05-06 22:32 49.59291 5.08112 23949 ft 377 kts 270°
2026-05-06 22:32 49.59319 5.04075 23948 ft 376 kts 270°
2026-05-06 22:32 49.59343 5.00044 23950 ft 376 kts 270°
2026-05-06 22:32 49.59368 4.96013 23954 ft 376 kts 270°
2026-05-06 22:33 49.59394 4.91977 23949 ft 376 kts 270°
2026-05-06 22:33 49.59418 4.87946 23951 ft 376 kts 270°
2026-05-06 22:33 49.59440 4.83906 23946 ft 376 kts 270°
2026-05-06 22:33 49.59464 4.79951 23793 ft 364 kts 270°
2026-05-06 22:34 49.59488 4.76080 23467 ft 358 kts 270°
2026-05-06 22:34 49.59512 4.72241 23143 ft 358 kts 270°
2026-05-06 22:34 49.59533 4.68407 22783 ft 357 kts 270°
2026-05-06 22:34 49.59551 4.64596 22432 ft 355 kts 270°
2026-05-06 22:35 49.59568 4.60797 22081 ft 354 kts 270°
2026-05-06 22:35 49.59584 4.57011 21734 ft 352 kts 270°
2026-05-06 22:35 49.59598 4.53249 21392 ft 351 kts 270°
2026-05-06 22:35 49.59612 4.49497 21053 ft 349 kts 270°
2026-05-06 22:36 49.59623 4.45761 20748 ft 348 kts 270°
2026-05-06 22:36 49.59634 4.42032 20494 ft 348 kts 270°
2026-05-06 22:36 49.59642 4.38309 20241 ft 347 kts 270°
2026-05-06 22:36 49.59648 4.34599 19990 ft 346 kts 270°
2026-05-06 22:37 49.59655 4.30904 19745 ft 344 kts 270°
2026-05-06 22:37 49.59662 4.27213 19497 ft 343 kts 270°
2026-05-06 22:37 49.59666 4.23542 19255 ft 342 kts 270°
2026-05-06 22:37 49.59667 4.19883 19008 ft 341 kts 270°
2026-05-06 22:38 49.59667 4.16234 18762 ft 340 kts 270°
2026-05-06 22:38 49.59667 4.12597 18536 ft 339 kts 270°
2026-05-06 22:38 49.59525 4.08980 18298 ft 338 kts 261°
2026-05-06 22:38 49.58903 4.05495 18030 ft 338 kts 249°
2026-05-06 22:39 49.57812 4.02291 17754 ft 338 kts 237°
2026-05-06 22:39 49.56528 3.99267 17491 ft 337 kts 238°
2026-05-06 22:39 49.55255 3.96245 17216 ft 336 kts 238°
2026-05-06 22:39 49.53991 3.93242 16914 ft 332 kts 238°
2026-05-06 22:40 49.52761 3.90315 16504 ft 330 kts 238°
2026-05-06 22:40 49.51516 3.87358 16098 ft 329 kts 238°
2026-05-06 22:40 49.50272 3.84410 15684 ft 328 kts 238°
2026-05-06 22:40 49.49028 3.81473 15275 ft 327 kts 238°
2026-05-06 22:41 49.47053 3.75255 14613 ft 320 kts 257°
2026-05-06 22:41 49.46513 3.71982 14381 ft 314 kts 257°
2026-05-06 22:41 49.45966 3.68739 14053 ft 312 kts 256°
2026-05-06 22:42 49.45417 3.65519 13719 ft 311 kts 256°
2026-05-06 22:42 49.44868 3.62320 13267 ft 307 kts 256°
2026-05-06 22:42 49.44332 3.59184 12982 ft 302 kts 256°
2026-05-06 22:42 49.43801 3.56061 12987 ft 302 kts 256°
2026-05-06 22:43 49.43271 3.52925 12992 ft 304 kts 256°
2026-05-06 22:43 49.42731 3.49783 13002 ft 304 kts 253°
2026-05-06 22:43 49.41873 3.46821 13003 ft 305 kts 238°
2026-05-06 22:43 49.40534 3.44299 13003 ft 305 kts 223°
2026-05-06 22:44 49.38816 3.42396 12972 ft 306 kts 210°
2026-05-06 22:44 49.36959 3.40789 12695 ft 305 kts 209°
2026-05-06 22:44 49.35113 3.39202 12440 ft 304 kts 209°
2026-05-06 22:44 49.33274 3.37620 12081 ft 303 kts 210°
2026-05-06 22:45 49.31440 3.36037 11699 ft 302 kts 210°
2026-05-06 22:45 49.29607 3.34457 11324 ft 302 kts 210°
2026-05-06 22:45 49.27779 3.32884 10936 ft 301 kts 210°
2026-05-06 22:45 49.25963 3.31302 10565 ft 300 kts 210°
2026-05-06 22:46 49.24168 3.29699 10206 ft 298 kts 211°
2026-05-06 22:46 49.22387 3.28089 9842 ft 297 kts 211°
2026-05-06 22:46 49.20616 3.26485 9439 ft 295 kts 211°
2026-05-06 22:46 49.18857 3.24896 9038 ft 293 kts 211°
2026-05-06 22:47 49.17108 3.23323 8645 ft 290 kts 211°
2026-05-06 22:47 49.15375 3.21767 8248 ft 288 kts 211°
2026-05-06 22:47 49.13648 3.20223 7863 ft 286 kts 211°
2026-05-06 22:47 49.11938 3.18693 7485 ft 284 kts 211°
2026-05-06 22:48 49.10242 3.17181 7121 ft 281 kts 211°
2026-05-06 22:48 49.08555 3.15685 6738 ft 279 kts 211°
2026-05-06 22:48 49.06909 3.14151 6366 ft 276 kts 219°
2026-05-06 22:48 49.05737 3.11915 5974 ft 270 kts 248°
2026-05-06 22:49 49.05344 3.09165 5563 ft 265 kts 266°
2026-05-06 22:49 49.05217 3.06379 5189 ft 263 kts 267°
2026-05-06 22:49 49.05094 3.03634 4995 ft 253 kts 266°
2026-05-06 22:49 49.04968 3.01049 5000 ft 237 kts 266°
2026-05-06 22:50 49.04845 2.98570 5007 ft 233 kts 266°
2026-05-06 22:50 49.04723 2.96109 5011 ft 233 kts 266°
2026-05-06 22:50 49.04600 2.93649 5008 ft 233 kts 266°
2026-05-06 22:50 49.04477 2.91186 4931 ft 234 kts 266°
2026-05-06 22:51 49.04354 2.88725 4672 ft 232 kts 266°
2026-05-06 22:51 49.04230 2.86281 4368 ft 231 kts 267°
2026-05-06 22:51 49.04108 2.83881 4047 ft 221 kts 266°
2026-05-06 22:51 49.03994 2.81637 3761 ft 210 kts 267°
2026-05-06 22:52 49.03881 2.79427 3478 ft 203 kts 267°
2026-05-06 22:52 49.03773 2.77310 3226 ft 199 kts 267°
2026-05-06 22:52 49.03666 2.75221 2936 ft 194 kts 267°
2026-05-06 22:52 49.03563 2.73236 2668 ft 182 kts 267°
2026-05-06 22:53 49.03466 2.71365 2429 ft 172 kts 267°
2026-05-06 22:53 49.03374 2.69603 2213 ft 161 kts 268°
2026-05-06 22:53 49.03287 2.67942 1991 ft 154 kts 268°
2026-05-06 22:53 49.03204 2.66342 1786 ft 150 kts 269°
2026-05-06 22:54 49.03124 2.64761 1566 ft 149 kts 269°
2026-05-06 22:54 49.03045 2.63197 1335 ft 147 kts 269°
2026-05-06 22:54 49.02949 2.61652 1118 ft 145 kts 268°
2026-05-06 22:54 49.02867 2.60128 928 ft 143 kts 269°
2026-05-06 22:55 49.02813 2.58635 733 ft 142 kts 268°
2026-05-06 22:55 49.02734 2.57120 528 ft 142 kts 265°
2026-05-06 22:55 49.02636 2.55649 375 ft 140 kts 266°
2026-05-06 22:55 49.02571 2.54280 354 ft 111 kts 264°
2026-05-06 22:56 49.02521 2.53372 364 ft 61 kts 265°
2026-05-06 22:56 49.02501 2.53003 353 ft 17 kts 265°
2026-05-06 22:56 49.02467 2.52822 357 ft 19 kts 246°
2026-05-06 22:56 49.02408 2.52709 360 ft 9 kts 213°
2026-05-06 22:57 49.02350 2.52686 362 ft 8 kts 181°
2026-05-06 22:57 49.02298 2.52693 357 ft 7 kts 174°
2026-05-06 22:57 49.02252 2.52700 354 ft 6 kts 174°
2026-05-06 22:57 49.02212 2.52705 359 ft 5 kts 177°
2026-05-06 22:58 49.02173 2.52708 355 ft 6 kts 176°
2026-05-06 22:58 49.02120 2.52713 356 ft 10 kts 177°
2026-05-06 22:58 49.02031 2.52726 354 ft 14 kts 175°
2026-05-06 22:58 49.01941 2.52738 360 ft 12 kts 175°
2026-05-06 22:59 49.01862 2.52762 361 ft 11 kts 156°
2026-05-06 22:59 49.01823 2.52847 359 ft 9 kts 107°
2026-05-06 22:59 49.01805 2.52936 358 ft 8 kts 114°
2026-05-06 22:59 49.01785 2.52995 361 ft 6 kts 117°
2026-05-06 23:00 49.01768 2.53056 359 ft 8 kts 109°
2026-05-06 23:00 49.01757 2.53149 362 ft 10 kts 93°
2026-05-06 23:00 49.01762 2.53278 355 ft 14 kts 85°
2026-05-06 23:00 49.01770 2.53429 356 ft 16 kts 85°
2026-05-06 23:01 49.01780 2.53608 354 ft 17 kts 84°
2026-05-06 23:01 49.01792 2.53781 358 ft 16 kts 85°
2026-05-06 23:01 49.01801 2.53938 354 ft 14 kts 86°
2026-05-06 23:01 49.01807 2.54081 354 ft 13 kts 86°
2026-05-06 23:02 49.01812 2.54211 358 ft 12 kts 90°
2026-05-06 23:02 49.01822 2.54339 357 ft 12 kts 82°
2026-05-06 23:02 49.01829 2.54475 361 ft 13 kts 88°
2026-05-06 23:02 49.01835 2.54621 354 ft 14 kts 84°
2026-05-06 23:03 49.01816 2.54774 358 ft 16 kts 125°
2026-05-06 23:03 49.01723 2.54868 354 ft 17 kts 170°
2026-05-06 23:03 49.01602 2.54882 354 ft 18 kts 175°
2026-05-06 23:03 49.01467 2.54903 358 ft 20 kts 176°
2026-05-06 23:04 49.01348 2.54939 362 ft 17 kts 165°
2026-05-06 23:04 49.01234 2.54987 357 ft 16 kts 164°
2026-05-06 23:04 49.01120 2.55036 363 ft 18 kts 163°
2026-05-06 23:04 49.00996 2.55090 362 ft 19 kts 164°
2026-05-06 23:05 49.00865 2.55147 356 ft 19 kts 164°
2026-05-06 23:05 49.00744 2.55198 362 ft 17 kts 165°
2026-05-06 23:05 49.00628 2.55251 358 ft 18 kts 161°
2026-05-06 23:05 49.00548 2.55384 360 ft 19 kts 97°
2026-05-06 23:06 49.00554 2.55589 357 ft 20 kts 85°
2026-05-06 23:06 49.00565 2.55808 359 ft 21 kts 85°
2026-05-06 23:06 49.00592 2.56036 355 ft 21 kts 72°
2026-05-06 23:06 49.00614 2.56236 354 ft 20 kts 83°
2026-05-06 23:07 49.00626 2.56439 354 ft 12 kts 84°
2026-05-06 23:07 49.00631 2.56514 354 ft 8 kts 84°
2026-05-06 23:07 49.00606 2.56572 357 ft 7 kts 164°
2026-05-06 23:07 49.00566 2.56589 362 ft 4 kts 165°
2026-05-06 23:08 49.00559 2.56592 360 ft 0 kts 165°